[[{"header":{"parameterUnit":"m.s-1","parameterCategory":1,"la1":30.2991,"la2":30.254,"lo1":-89.0895,"lo2":-89.0444,"dy":0.0017,"dx":0.0017,"nx":28,"ny":28,"refTime":"2025-06-05T03:00:00:Z","depth":0,"parameterNumber":2,"parameterNumberName":"U-component_of_WINDS"},"data":[0,0,0,0,0,0,0,0,0,0,0,0,0,0,0,0,0,0,0,0,0,0,0,0,0,0,0,0,0,0,0,0,0,0,0,0,0,0,0,0,0,0,0,0,0,0,0,0,0,0,0,0,0,0,0,0,0,0,0.6142,0.6143,0,0.6252,0.6253,0.6254,0.6305,0.6305,0.6305,0.6305,0.6419,0.6422,0.6425,0,0,0,0,0,0,0,0,0,0,0,0,0,0.5978,0.5981,0.6142,0.6143,0.6145,0.6251,0.6253,0.6254,0.6305,0.6305,0.6305,0.6305,0.6418,0.6422,0.6425,0,0,0,0,0,0,0,0,0,0,0,0,0,0.6065,0.5982,0.6142,0.6183,0.6187,0.6251,0.6253,0.6255,0.6305,0.6305,0.6305,0.6305,0.6417,0.6421,0.6426,0.6458,0,0,0.644,0.6442,0,0,0,0,0,0,0,0,0.606,0.6071,0.6175,0.618,0.6185,0.6264,0.6237,0.6323,0.6305,0.626,0.6305,0.6304,0.6368,0.6376,0.6397,0.6463,0.6468,0.6441,0.6444,0.6446,0.6447,0,0,0,0,0,0,0,0.6054,0.6066,0.6185,0.6177,0.6183,0.6196,0.6208,0.6254,0.6314,0.6264,0.6268,0.628,0.6371,0.6393,0.64,0.647,0.6441,0.6445,0.6448,0.6449,0.6568,0.6568,0,0,0,0,0,0,0.6041,0.6061,0.6182,0.6189,0.6121,0.6199,0.6213,0.6239,0.6313,0.6324,0.628,0.6282,0.6385,0.6395,0.6405,0.6447,0.6445,0.645,0.6453,0.6567,0.6568,0.6568,0,0,0,0,0,0,0.6037,0.6051,0.6177,0.6126,0.6143,0.6202,0.6231,0.6241,0.6264,0.6325,0.6337,0.6292,0.6385,0.6398,0.6444,0.6452,0.6452,0.6456,0.6567,0.6568,0.6568,0.6532,0,0,0,0,0,0,0.6032,0.6049,0.6061,0.6126,0.6145,0.6214,0.6232,0.6244,0.6271,0.6275,0.6339,0.635,0.6386,0.6437,0.6449,0.6458,0.646,0.6567,0.6567,0.6568,0.6533,0.6531,0.653,0,0,0,0,0,0.6026,0.6047,0.6062,0.6076,0.6162,0.6214,0.6226,0.6267,0.6272,0.6285,0.6325,0.6348,0.6449,0.6441,0.6455,0.6466,0.6566,0.6567,0.6568,0.6533,0.6532,0.653,0,0,0,0,0,0,0.5982,0.6056,0.6073,0.6116,0.6158,0.6223,0.6241,0.6263,0.6306,0.6307,0.6357,0.6371,0.6413,0.6444,0.6434,0.6501,0.651,0.6513,0.6479,0.6478,0.6476,0.6468,0.6464,0,0,0,0,0,0.5978,0.6014,0.6077,0.6108,0.6129,0.6181,0.6205,0.6233,0.6279,0.6298,0.6341,0.6386,0.6428,0.6455,0.6497,0.6538,0.6553,0.6552,0.6551,0.6549,0.6552,0.6577,0.6577,0.6571,0.6571,0.6571,0,0,0.5968,0.6013,0.6033,0.61,0.6137,0.6174,0.6196,0.6234,0.6262,0.6304,0.635,0.6383,0.6437,0.648,0.6502,0.6508,0.6557,0.655,0.6548,0.6552,0.6577,0.6578,0.6578,0.6571,0.6571,0.6571,0,0,0.597,0.6008,0.6038,0.6074,0.6129,0.6164,0.6171,0.6232,0.6256,0.6303,0.6335,0.637,0.6441,0.6478,0.6506,0.6523,0.6546,0.6535,0.6527,0.6551,0.6551,0.6552,0.6559,0.656,0.6537,0.6537,0.6537,0,0.5952,0.6008,0.6051,0.6088,0.6117,0.6156,0.6188,0.6221,0.6287,0.6306,0.6312,0.6402,0.6441,0.6494,0.6498,0.6519,0.653,0.6528,0.6548,0.6549,0.655,0.6557,0.6559,0.6536,0.6536,0.6536,0.6536,0,0.5983,0.6022,0.604,0.6102,0.6134,0.6167,0.6216,0.6243,0.6268,0.6302,0.635,0.6398,0.645,0.6465,0.649,0.6522,0.6524,0.6538,0.6548,0.6548,0.6556,0.6558,0.6533,0.6534,0.6534,0.6535,0,0,0.596,0.6046,0.6052,0.6081,0.6145,0.6176,0.6212,0.6263,0.6285,0.6329,0.6361,0.6421,0.6434,0.6466,0.6496,0.6516,0.6527,0.6528,0.653,0.6527,0.6566,0.6555,0.6557,0.6543,0.6543,0.6544,0.6562,0,0.5971,0.6037,0.6077,0.6127,0.6164,0.6202,0.6234,0.6276,0.631,0.6346,0.6383,0.6425,0.6439,0.6459,0.6481,0.6521,0.6536,0.652,0.6574,0.6575,0.6559,0.6561,0.655,0.6564,0.6565,0.6565,0.6566,0,0.5993,0.6036,0.6089,0.6149,0.6166,0.6194,0.6244,0.6278,0.6328,0.6351,0.6386,0.6416,0.6457,0.6463,0.652,0.6509,0.6533,0.6556,0.6558,0.6565,0.657,0.6568,0.6569,0.6571,0.657,0.657,0.657,0,0.5971,0.6042,0.6084,0.6107,0.6178,0.6197,0.6228,0.6277,0.6306,0.635,0.6369,0.6418,0.6444,0.6482,0.6524,0.6525,0.6577,0.6587,0.6598,0.6597,0.6607,0.6606,0.6612,0.6622,0.6622,0.6622,0.6622,0,0.5979,0.601,0.6075,0.61,0.6137,0.6183,0.6218,0.6252,0.6296,0.6329,0.6365,0.6396,0.645,0.6488,0.6522,0.6564,0.6576,0.6596,0.6604,0.6593,0.659,0.6609,0.6609,0.6623,0.6623,0.6622,0.6622,0,0.5961,0.6005,0.6053,0.6117,0.6133,0.6157,0.6212,0.6239,0.6274,0.6316,0.6328,0.6384,0.643,0.6476,0.6538,0.6561,0.6603,0.6614,0.6586,0.6591,0.6599,0.6598,0.6618,0.6624,0.6629,0.6629,0.6629,0,0.5963,0.5988,0.6054,0.6079,0.6108,0.6148,0.6177,0.6224,0.6253,0.6312,0.6331,0.638,0.6421,0.6493,0.654,0.6588,0.6601,0.6605,0.6608,0.6596,0.6602,0.6599,0.6603,0.6603,0.6603,0.6603,0.6603,0,0.5962,0.5983,0.6023,0.6072,0.6106,0.6146,0.6188,0.6206,0.6261,0.6292,0.6339,0.6372,0.6435,0.6483,0.6537,0.6569,0.6595,0.6601,0.6606,0.6595,0.6577,0.6587,0.6582,0.66,0.6601,0.6601,0.6601,0.6601,0.5954,0.5978,0.6029,0.6073,0.611,0.6148,0.6176,0.6215,0.6255,0.631,0.6336,0.6383,0.6434,0.6508,0.654,0.6579,0.6586,0.6593,0.6595,0.6596,0.6593,0.6571,0.6589,0.6589,0.6589,0.6589,0.6589,0,0.5955,0.599,0.603,0.6088,0.6123,0.6144,0.6191,0.6219,0.6261,0.6305,0.6345,0.64,0.6447,0.6497,0.6547,0.6569,0.6582,0.658,0.6579,0.6587,0.6584,0.6575,0.6569,0.6569,0.6569,0.6569,0.6569,0.6569,0.596,0.6002,0.603,0.6091,0.6126,0.6172,0.6198,0.6234,0.6269,0.6329,0.6368,0.64,0.6447,0.6501,0.6546,0.656,0.6577,0.6571,0.6588,0.6585,0.6587,0.6588,0.658,0.6575,0.6575,0.6588,0.6588,0.6588]},{"header":{"parameterUnit":"m.s-1","parameterCategory":1,"la1":30.2991,"la2":30.254,"lo1":-89.0895,"lo2":-89.0444,"dy":0.0017,"dx":0.0017,"nx":28,"ny":28,"refTime":"2025-06-05T03:00:00:Z","depth":0,"parameterNumber":3,"parameterNumberName":"V-component_of_WINDS"},"data":[0,0,0,0,0,0,0,0,0,0,0,0,0,0,0,0,0,0,0,0,0,0,0,0,0,0,0,0,0,0,0,0,0,0,0,0,0,0,0,0,0,0,0,0,0,0,0,0,0,0,0,0,0,0,0,0,0,0,4.195,4.1949,0,4.1914,4.1914,4.1913,4.1897,4.1898,4.1898,4.1898,4.1856,4.1855,4.1853,0,0,0,0,0,0,0,0,0,0,0,0,0,4.1999,4.1998,4.195,4.1949,4.1949,4.1914,4.1914,4.1913,4.1897,4.1898,4.1898,4.1898,4.1856,4.1855,4.1853,0,0,0,0,0,0,0,0,0,0,0,0,0,4.1972,4.1998,4.195,4.1937,4.1936,4.1914,4.1914,4.1913,4.1897,4.1898,4.1898,4.1898,4.1857,4.1855,4.1853,4.1841,0,0,4.1848,4.1847,0,0,0,0,0,0,0,0,4.1973,4.197,4.1939,4.1938,4.1936,4.1911,4.1916,4.1889,4.1897,4.1912,4.1898,4.1898,4.1873,4.187,4.1863,4.1839,4.1837,4.1848,4.1846,4.1846,4.1845,0,0,0,0,0,0,0,4.1975,4.1971,4.1936,4.1939,4.1937,4.1931,4.1928,4.1911,4.1892,4.191,4.1909,4.1906,4.1873,4.1865,4.1862,4.1836,4.1848,4.1846,4.1845,4.1844,4.1799,4.1798,0,0,0,0,0,0,4.198,4.1973,4.1937,4.1935,4.1955,4.193,4.1926,4.1919,4.1893,4.1889,4.1906,4.1905,4.1868,4.1864,4.1861,4.1844,4.1846,4.1844,4.1843,4.1799,4.1798,4.1798,0,0,0,0,0,0,4.1981,4.1977,4.1938,4.1953,4.1948,4.1929,4.1921,4.1918,4.191,4.1889,4.1885,4.1902,4.1868,4.1863,4.1846,4.1842,4.1843,4.1842,4.1799,4.1799,4.1798,4.1811,0,0,0,0,0,0,4.1982,4.1977,4.1974,4.1954,4.1947,4.1926,4.1921,4.1917,4.1908,4.1907,4.1884,4.188,4.1868,4.1849,4.1844,4.184,4.184,4.1799,4.1799,4.1798,4.1811,4.1811,4.1812,0,0,0,0,0,4.1984,4.1978,4.1974,4.1969,4.1943,4.1926,4.1922,4.1909,4.1908,4.1903,4.1889,4.1881,4.1844,4.1847,4.1842,4.1837,4.1799,4.1799,4.1798,4.1811,4.1811,4.1812,0,0,0,0,0,0,4.1996,4.1975,4.197,4.1957,4.1944,4.1923,4.1917,4.191,4.1895,4.1895,4.1877,4.1872,4.1856,4.1845,4.1849,4.1823,4.1821,4.1819,4.1832,4.1832,4.1832,4.1835,4.1839,0,0,0,0,0,4.1997,4.1987,4.1968,4.1958,4.1952,4.1936,4.1928,4.1919,4.1904,4.1897,4.1882,4.1866,4.185,4.184,4.1825,4.1809,4.1803,4.1803,4.1803,4.1804,4.1803,4.1793,4.1792,4.1797,4.1797,4.1797,0,0,4.1999,4.1986,4.1981,4.196,4.1949,4.1937,4.1931,4.1918,4.1909,4.1895,4.1878,4.1866,4.1847,4.183,4.1822,4.182,4.18,4.1803,4.1804,4.1802,4.1792,4.1792,4.1792,4.1797,4.1797,4.1797,0,0,4.1997,4.1987,4.1977,4.1966,4.195,4.1939,4.1937,4.1917,4.191,4.1893,4.1882,4.1869,4.1843,4.183,4.182,4.1812,4.1804,4.1808,4.1809,4.18,4.18,4.1799,4.1796,4.1795,4.1806,4.1807,4.1807,0,4.2001,4.1985,4.1973,4.1962,4.1952,4.1941,4.193,4.1919,4.1898,4.1891,4.189,4.1857,4.1843,4.1823,4.1821,4.1813,4.1809,4.181,4.1801,4.18,4.18,4.1797,4.1795,4.1807,4.1807,4.1807,4.1807,0,4.199,4.1979,4.1973,4.1955,4.1945,4.1934,4.1919,4.191,4.1902,4.1891,4.1873,4.1856,4.1837,4.1832,4.1823,4.181,4.1809,4.1805,4.1802,4.18,4.1797,4.1795,4.1808,4.1808,4.1808,4.1807,0,0,4.1994,4.197,4.1968,4.196,4.194,4.193,4.1918,4.1901,4.1894,4.1879,4.1867,4.1846,4.1841,4.183,4.1819,4.1811,4.1806,4.1807,4.1806,4.1807,4.1789,4.1793,4.1792,4.18,4.18,4.1799,4.1791,0,4.1989,4.1969,4.1958,4.1942,4.1931,4.192,4.1909,4.1895,4.1884,4.1871,4.1858,4.1843,4.1839,4.1831,4.1823,4.1808,4.1802,4.1809,4.1788,4.1787,4.1793,4.179,4.1794,4.1787,4.179,4.1789,4.1789,0,4.1981,4.1969,4.1952,4.1934,4.1929,4.192,4.1903,4.1892,4.1875,4.1867,4.1855,4.1845,4.1829,4.1828,4.1806,4.1811,4.1801,4.1793,4.1792,4.1789,4.1788,4.1787,4.1785,4.1783,4.1787,4.1787,4.1787,0,4.1985,4.1964,4.1951,4.1944,4.1923,4.1917,4.1907,4.1891,4.1881,4.1866,4.186,4.1842,4.1832,4.1818,4.1803,4.1803,4.1782,4.1779,4.1774,4.1775,4.177,4.1771,4.1766,4.1764,4.1765,4.1765,4.1765,0,4.1981,4.1971,4.1953,4.1945,4.1933,4.192,4.1908,4.1897,4.1883,4.1871,4.1859,4.1848,4.1829,4.1815,4.1803,4.1786,4.1782,4.1774,4.1771,4.1775,4.1776,4.1769,4.1769,4.1764,4.1764,4.1764,4.1764,0,4.1984,4.1972,4.1957,4.1939,4.1934,4.1926,4.1909,4.19,4.1889,4.1874,4.187,4.1851,4.1834,4.1818,4.1794,4.1786,4.1769,4.1765,4.1776,4.1774,4.177,4.177,4.1759,4.1757,4.1758,4.1758,4.1758,0,4.1982,4.1974,4.1955,4.1948,4.1939,4.1927,4.1918,4.1904,4.1894,4.1875,4.1867,4.185,4.1836,4.1808,4.1792,4.1773,4.1768,4.1766,4.1765,4.177,4.1768,4.1769,4.1767,4.1766,4.1766,4.1766,4.1766,0,4.1979,4.1974,4.1962,4.1948,4.1938,4.1925,4.1912,4.1906,4.1889,4.1879,4.1862,4.1851,4.1828,4.181,4.179,4.1778,4.1769,4.1767,4.1765,4.1769,4.1775,4.1771,4.1776,4.1767,4.1767,4.1767,4.1767,4.1767,4.1979,4.1972,4.1958,4.1945,4.1934,4.1922,4.1913,4.1901,4.1888,4.187,4.1861,4.1845,4.1827,4.18,4.1788,4.1773,4.1771,4.1767,4.1767,4.1766,4.1767,4.1778,4.1769,4.1769,4.1769,4.1769,4.1769,0,4.1976,4.1967,4.1955,4.1938,4.1928,4.1922,4.1907,4.1898,4.1884,4.187,4.1856,4.1836,4.1819,4.1801,4.1783,4.1774,4.1769,4.177,4.177,4.1767,4.177,4.1774,4.1774,4.1774,4.1774,4.1774,4.1774,4.1774,4.1973,4.1961,4.1954,4.1935,4.1925,4.191,4.1902,4.189,4.1879,4.1858,4.1845,4.1834,4.1817,4.1798,4.1781,4.1776,4.1769,4.1771,4.1764,4.1767,4.1767,4.1767,4.177,4.1769,4.1769,4.1762,4.1762,4.1762]}]]